Regional Weather Roundup
Issued by NWS

Home | Current Version | Previous Version | Graphics & Text | Print | Product List | Glossary On
Versions: 1 2 3 4 5 6 7 8 9 10 11 12 13 14 15 16 17 18 19 20 21 22 23 24 25 26 27 28 29 30 31 32 33 34 35 36 37 38 39 40 41 42 43 44 45 46 47 48 49 50
000
ASUS43 KOAX 291002
RWRNE

WEATHER ROUNDUP FOR NEBRASKA
NATIONAL WEATHER SERVICE OMAHA NE
500 AM CDT TUE JUL 29 2014

NOTES: SATELLITE DATA IS BEING USED TO AUGMENT CLOUD COVER ABOVE
       12000 FEET.
       "FAIR" INDICATES FEW OR NO CLOUDS BELOW 12,000 FEET WITH NO
       SIGNIFICANT WEATHER AND/OR OBSTRUCTIONS TO VISIBILITY.

  * THESE STATIONS DO NOT REPORT WEATHER SUCH AS RAIN...SNOW OR FOG.

NEZ001>004-019>022-054>056-291100-
NEBRASKA PANHANDLE

CITY           SKY/WX    TMP DP  RH WIND       PRES   REMARKS
SCOTTSBLUFF    CLEAR     61  58  90 E6        30.21S
ALLIANCE       CLEAR     59  56  89 SE8       30.22F
CHADRON        CLEAR     60  53  77 NE8       30.22S
KIMBALL        CLEAR     59  55  88 SW5       30.22F
SIDNEY         CLEAR     58  52  80 SE6       30.23S
$$

NEZ057>060-069>072-079>082-291100-
SOUTHWEST NEBRASKA

CITY           SKY/WX    TMP DP  RH WIND       PRES   REMARKS
NORTH PLATTE   PTCLDY    58  56  93 E6        30.23R
IMPERIAL       CLEAR     60  56  86 E8        30.20S
LEXINGTON      PTCLDY    60  57  91 SE6       30.22F
MCCOOK         CLEAR     60  56  86 E7        30.20S
OGALLALA       CLEAR     58  56  94 E7        30.21S
$$

NEZ005>010-023>029-035>040-094-291100-
NORTH CENTRAL NEBRASKA

CITY           SKY/WX    TMP DP  RH WIND       PRES   REMARKS
VALENTINE      PTCLDY    57  52  83 NE5       30.25S
AINSWORTH      CLEAR     55  54  97 CALM      30.25S
BROKEN BOW     MOCLDY    60  56  86 E3        30.25R
O`NEILL        CLEAR     52  49  90 SW5       30.24S
ORD            LGT RAIN  60  58  92 SW5       30.24R
THEDFORD       MOCLDY    60  57  91 SE5       30.26S
$$

NEZ041-046>049-061>064-073>077-083>087-291100-
SOUTH CENTRAL NEBRASKA

CITY           SKY/WX    TMP DP  RH WIND       PRES   REMARKS
GRAND ISLAND   CLOUDY    63  59  87 SE3       30.23S
AURORA         CLOUDY    62  61  98 CALM      30.23R
HASTINGS       CLOUDY    64  56  75 NE3       30.23S
HEBRON         CLOUDY    64  58  81 CALM      30.21S
HOLDREGE       PTCLDY    59  56  89 E6        30.22F
KEARNEY *      PTCLDY    59  54  82 E3        30.23S
YORK           CLOUDY    59  59 100 CALM      30.23S
$$

NEZ011>018-030>034-042>045-291100-
NORTHEAST NEBRASKA

CITY           SKY/WX    TMP DP  RH WIND       PRES   REMARKS
NORFOLK        CLEAR     53  51  93 W3        30.21R
ALBION         CLEAR     53  50  92 CALM      30.23S
BLAIR          CLEAR     58  55  89 N7        30.18S
COLUMBUS *     CLEAR     55  48  76 CALM      30.22R
FREMONT        CLEAR     57  54  89 W3        30.20R
TEKAMAH        CLEAR     55  52  89 N8        30.18S
WAYNE          CLEAR     51  50  95 CALM      30.21S
$$

NEZ050>053-065>068-078-088>093-291100-
SOUTHEAST NEBRASKA

CITY           SKY/WX    TMP DP  RH WIND       PRES   REMARKS
LINCOLN        CLEAR     59  53  80 NW3       30.22R
OMAHA EPPLEY   CLEAR     57  55  93 NW5       30.18S
BEATRICE       PTCLDY    55  54  96 N3        30.20S
FALLS CITY     CLEAR     56  54  93 W3        30.17R
NEBRASKA CITY  CLEAR     58  56  90 N3        30.18R
PLATTSMOUTH    CLEAR     60  56  87 CALM      30.18S
$$

NEZ044-045-051>053-067-291100-
OMAHA AREA

CITY           SKY/WX    TMP DP  RH WIND       PRES   REMARKS
OMAHA EPPLEY   CLEAR     57  55  93 NW5       30.18S
BLAIR          CLEAR     58  55  89 N7        30.18S
FREMONT        CLEAR     57  54  89 W3        30.20R
MILLARD        CLEAR     59  56  89 CALM      30.18S
OFFUTT AFB     CLEAR     54  54 100 CALM      30.17S FOG
PLATTSMOUTH    CLEAR     60  56  87 CALM      30.18S
WAHOO          FAIR      58  55  89 W3        30.20R
$$



USA.gov is the U.S. government's official web portal to all federal, state and local government web resources and services.